Location: D�derode
(51.8092°N, 10.1065°E)
Time: 06:14:18
(UTC+00:00)

Feng Yun 1-1 Rocket - Pass Details

Date: 01 December 2020
Orbit: 829 x 933 km, 99.2° (Epoch: 23 January)

Event Time Altitude Azimuth Distance (km) Brightness Sun altitude
Rises 16:50:10 0° 153° (SSE) 3,515 7.3 -14.3°
Reaches altitude 10° 16:52:36 10° 151° (SSE) 2,564 6.6 -14.7°
Maximum altitude 16:58:15 69° 70° (ENE) 943 4.2 -15.5°
Drops below altitude 10° 17:03:48 10° 348° (NNW) 2,512 6.6 -16.3°
Sets 17:06:09 0° 346° (NNW) 3,439 7.4 -16.7°
